Regional Weather Roundup
Issued by NWS

Home | Current Version | Previous Version | Graphics & Text | Print | Product List | Glossary On
Versions: 1 2 3 4 5 6 7 8 9 10 11 12 13 14 15 16 17 18 19 20 21 22 23 24 25 26 27 28 29 30 31 32 33 34 35 36 37 38 39 40 41 42 43 44 45 46 47 48 49 50
000
ASUS45 KTFX 301910
RWRMT
MONTANA REGIONAL WEATHER ROUNDUP
NATIONAL WEATHER SERVICE GREAT FALLS MT
100 PM MDT SUN AUG 30 2015

NOTE: "FAIR" INDICATES FEW OR NO CLOUDS BELOW 12000 FEET WITH NO
SIGNIFICANT WEATHER AND/OR OBSTRUCTIONS TO VISIBILITY.

MTZ001>007-043-302000-
WEST OF THE DIVIDE

CITY           SKY/WX    TMP DP  RH WIND       PRES   REMARKS
KALISPELL      CLOUDY    69  43  38 S14       29.81F
MISSOULA       CLOUDY    68  45  43 CALM      29.87F HAZE
BUTTE          MOSUNNY   70  37  29 CALM      29.94F
MULLAN PASS    CLOUDY    50  40  68 SW8G17    29.97S
DEER LODGE       N/A     70  46  43 NE3       29.92F
EUREKA           N/A     55  48  76 E5        29.85S
HAMILTON         N/A     73  39  29 W8        29.86F
LIBBY            N/A     59  46  63 W9G17     29.86R
$$

MTZ008-052>055-302000-
SOUTHWEST MONTANA

CITY           SKY/WX    TMP DP  RH WIND       PRES   REMARKS
BOZEMAN        SUNNY     78  45  30 CALM      29.87F
DILLON         MOSUNNY   76  38  25 SW13      29.91F
W YELLOWSTONE  MOSUNNY   66  45  45 SW16G26   30.09F
$$

MTZ009-010-012-014-046-048-049-054-302000-
EAST SLOPES AND CENTRAL MONTANA

CITY           SKY/WX    TMP DP  RH WIND       PRES   REMARKS
CUT BANK       SUNNY     74  34  23 W24G37    29.77F
GREAT FALLS    PTSUNNY   77  43  29 SW13G26   29.81F HAZE
HELENA         MOSUNNY   76  45  33 NW5       29.83F
CONRAD           N/A     77  37  23 S14       29.84F
$$

MTZ011-013-016-021-045-047-050-051-302000-
NORTH CENTRAL MONTANA

CITY           SKY/WX    TMP DP  RH WIND       PRES   REMARKS
HAVRE          SUNNY     76  49  38 MISG      29.76F
LEWISTOWN      MOSUNNY   79  43  27 W13G24    29.86F
N BAR RANCH      N/A     77  45  31 W13       29.89F
CHINOOK          N/A     75  45  33 SW6       29.75F
FORT BENTON      N/A     75  52  43 W3        29.78F
$$

MTZ017>020-022>027-061-062-302000-
NORTHEAST MONTANA

CITY           SKY/WX    TMP DP  RH WIND       PRES   REMARKS
GLASGOW        PTSUNNY   73  56  54 N12       29.77F
JORDAN           N/A     76  53  44 N8        29.81F
SIDNEY         CLOUDY    81  52  36 NW18      29.71F
WOLF POINT     LGT RAIN  76  52  43 NW16      29.79R
MALTA            N/A     69  58  68 CALM      29.74F
PLENTYWOOD       N/A     79  45  29 NW23G30   29.76R
POPLAR           N/A     81  45  28 NW18      29.78R
$$

MTZ028>42-056>058-302000-
SOUTHCENTRAL AND SOUTHEAST MONTANA

CITY           SKY/WX    TMP DP  RH WIND       PRES   REMARKS
BAKER          PTSUNNY   91  48  22 N10G21    29.78S
BILLINGS       PTSUNNY   78  47  33 E12       29.88F
LIVINGSTON     MOSUNNY   77  50  38 N7        29.88F
MILES CITY     CLOUDY    82  50  32 N31G39    29.80R
EKALAKA          N/A     87  48  25 W8        29.83R
FORSYTH          N/A     81  48  32 N13G21    29.82F
LAUREL           N/A     78  47  33 NE2       29.88F
$$

REGIONAL REPORTS...DAKOTAS

CITY           SKY/WX    TMP DP  RH WIND       PRES   REMARKS
WILLISTON      PTSUNNY   85  53  33 NW8       29.74R HAZE
MINOT          MOSUNNY   91  54  28 S10G21    29.61F
DICKINSON      CLOUDY    88  47  24 W17G24    29.72
CROSBY           N/A     81  52  36 NW18      29.69R HAZE
BISMARCK       CLOUDY    91  59  33 S13       29.68F HX  90
GRAND FORKS    PTSUNNY   84  68  58 S17G24    29.71F
FARGO          SUNNY     85  66  53 S16G23    29.77F
BUFFALO SD       N/A     93  46  19 NW5       29.70F
RAPID CITY     SUNNY     94  60  32 VRB7      29.79F HX  94
$$

REGIONAL REPORTS...WYOMING/IDAHO/WASHINGTON

CITY           SKY/WX    TMP DP  RH WIND       PRES   REMARKS
GILLETTE       PTSUNNY   91  42  18 W8        29.86F
SHERIDAN       CLOUDY    81  50  33 NW16      29.91F
BUFFALO WY     CLOUDY    77  47  34 N22G30    29.95R
CODY           PTSUNNY   73  52  46 NE14      29.94F
YELLOWSTONE LA   N/A     61  37  41 VRB7G21   30.19F
IDAHO FALLS    MOSUNNY   76  46  34 SW16G29   30.03F
SALMON         MOSUNNY   77  39  25 S18G26    29.86F
BOISE          SUNNY     75  40  28 NW3       29.99F
SPOKANE        LGT RAIN  56  53  90 SW15      29.91R
$$

REGIONAL REPORTS...ALBERTA

CITY           SKY/WX    TMP DP  RH WIND       PRES   REMARKS
EDMONTON       SUNNY     75  43  31 SW6       29.48F
CALGARY        MOSUNNY   70  36  28 S7        29.59F
LETHBRIDGE     MOSUNNY   75  34  22 SW21G33   29.67F
MEDICINE HAT   MOSUNNY   79  36  21 SW25G33   29.66F
WATERTON GATE    N/A     66  36  32 SW32G51     N/A
CARDSTON         N/A     70  30  23 W17G26      N/A
MILK RIVER       N/A     75  34  22 SW18G28     N/A
ONEFOUR          N/A     79  34  19 SW20G26     N/A
$$

REGIONAL REPORTS...SASKATCHEWAN

CITY           SKY/WX    TMP DP  RH WIND       PRES   REMARKS
SWIFT CURRENT  SUNNY     72  46  40 SW17      29.71F
REGINA         PTSUNNY   68  54  60 NW8       29.70S
SASKATOON      CLOUDY    73  46  38 SW17G25   29.62S
CYPRESS HILLS    N/A     68  37  32 SW14G21     N/A
VAL MARIE        N/A     68  59  73 S6          N/A
ROCKGLEN         N/A     59  55  88 SW8         N/A
$$



USA.gov is the U.S. government's official web portal to all federal, state and local government web resources and services.